Location: Cambridge (historical)
(38.6883°N, 119.0140°W)
Time: 17:25:02
(UTC+00:00)

Cosmos 44 Rocket - Pass Details

Date: 29 October 2020
Orbit: 642 x 748 km, 65.1° (Epoch: 23 November)

Event Time Altitude Azimuth Distance (km) Brightness Sun altitude
Exits shadow 12:10:28 34° 183° (S) 1,214 4.4 -25.9°
Drops below altitude 10° 12:13:30 10° 167° (SSE) 2,255 6.0 -25.3°
Sets 12:15:54 0° 163° (SSE) 3,173 6.9 -24.8°
